Weather History for K9D7 - May, 2013

Change the Weather History Date:

Sunday, May 26, 2013

  Actual Average (KDVL) Record (KDVL)
Temperature  
Mean Temperature 55 °F -  
Max Temperature 60 °F 68 °F 90 °F (1969)
Min Temperature 50 °F 47 °F 32 °F (1961)
Degree Days  
Heating Degree Days 10    
Growing Degree Days 5 (Base 50)    
Moisture  
Dew Point 54 °F    
Average Humidity 100    
Maximum Humidity 100    
Minimum Humidity 94    
Precipitation  
Precipitation 0.01 in - - ()
Sea Level Pressure  
Sea Level Pressure 30.04 in    
Wind  
Wind Speed 18 mph (SE)    
Max Wind Speed 24 mph    
Max Gust Speed 30 mph    
Visibility 10 miles    
Events Rain    
Averages and records for this station are not official NWS values.
T = Trace of Precipitation, MM = Missing Value Source: NWS Daily Summary

Daily Weather History Graph

Daily Weather History Graph

Search for Another Location

Airport or City:

Trip Planner

Search our weather history database for the weather conditions in past years. The results will help you decide how hot, cold, wet, or windy it might be!

Date:

Astronomy

May. 26, 2013 Rise Set
Actual Time 5:44 AM CDT 9:24 PM CDT
Civil Twilight 5:04 AM CDT 10:04 PM CDT
Nautical Twilight 4:11 AM CDT 10:58 PM CDT
Astronomical Twilight 2:55 AM CDT 12:15 AM CDT
Moon 11:10 PM CDT (5/26) 7:16 AM CDT (5/26)
Length of Visible Light 16h 59m
Length of Day
15h 40m
Waning Gibbous, 96% of the Moon is Illuminated
May 26
Waning Gibbous
May 31
Last Quarter
Jun 8
New
Jun 16
First Quarter
Jun 23
Full

Hourly Weather History & Observations

Time (CDT) Temp. Dew Point Humidity Pressure Visibility Wind Dir Wind Speed Gust Speed Precip Events Conditions
12:15 AM 55.4 °F 55.4 °F 100% 30.06 in 10.0 mi SE 20.7 mph 26.5 mph N/A   Mostly Cloudy
12:35 AM 55.4 °F 55.4 °F 100% 30.06 in 10.0 mi SSE 23.0 mph 26.5 mph N/A   Scattered Clouds
12:55 AM 55.4 °F 55.4 °F 100% 30.07 in 10.0 mi SSE 19.6 mph 24.2 mph N/A   Clear
1:15 AM 55.4 °F 55.4 °F 100% 30.08 in 10.0 mi SSE 19.6 mph 24.2 mph N/A   Mostly Cloudy
1:35 AM 55.4 °F 55.4 °F 100% 30.08 in 10.0 mi SE 21.9 mph 26.5 mph N/A   Overcast
1:55 AM 53.6 °F 53.6 °F 100% 30.07 in 10.0 mi SE 20.7 mph - N/A   Overcast
2:15 AM 53.6 °F 53.6 °F 100% 30.06 in 10.0 mi SE 18.4 mph 26.5 mph N/A   Overcast
2:35 AM 53.6 °F 53.6 °F 100% 30.06 in 10.0 mi SE 18.4 mph 21.9 mph N/A   Overcast
2:55 AM 53.6 °F 53.6 °F 100% 30.05 in 10.0 mi SE 17.3 mph - N/A   Overcast
3:15 AM 53.6 °F 53.6 °F 100% 30.03 in 10.0 mi SE 17.3 mph 24.2 mph N/A   Overcast
3:35 AM 53.6 °F 53.6 °F 100% 30.03 in 10.0 mi ESE 19.6 mph 26.5 mph N/A   Overcast
3:55 AM 53.6 °F 53.6 °F 100% 30.03 in 10.0 mi SE 18.4 mph - N/A   Overcast
4:15 AM 53.6 °F 53.6 °F 100% 30.04 in 10.0 mi SE 17.3 mph - N/A   Overcast
4:35 AM 53.6 °F 53.6 °F 100% 30.05 in 10.0 mi SE 15.0 mph - N/A   Overcast
4:55 AM 51.8 °F 51.8 °F 100% 30.06 in 10.0 mi SE 16.1 mph - N/A   Overcast
5:15 AM 51.8 °F 51.8 °F 100% 30.07 in 10.0 mi SE 15.0 mph - N/A   Overcast
5:35 AM 51.8 °F 51.8 °F 100% 30.07 in 10.0 mi SE 23.0 mph - N/A   Overcast
5:55 AM 51.8 °F 51.8 °F 100% 30.09 in 10.0 mi SSE 21.9 mph 28.8 mph N/A   Overcast
6:15 AM 51.8 °F 51.8 °F 100% 30.09 in 10.0 mi SSE 19.6 mph 26.5 mph N/A   Overcast
6:35 AM 50.0 °F 50.0 °F 100% 30.09 in 9.0 mi SSE 16.1 mph - N/A   Overcast
6:55 AM 50.0 °F 50.0 °F 100% 30.10 in 9.0 mi SSE 16.1 mph 23.0 mph N/A   Overcast
7:15 AM 51.8 °F 51.8 °F 100% 30.08 in 10.0 mi SSE 20.7 mph 24.2 mph N/A   Overcast
7:35 AM 51.8 °F 51.8 °F 100% 30.09 in 10.0 mi SSE 17.3 mph 27.6 mph N/A   Overcast
7:55 AM 50.0 °F 50.0 °F 100% 30.08 in 10.0 mi SSE 17.3 mph - N/A   Overcast
8:15 AM 50.0 °F 50.0 °F 100% 30.08 in 10.0 mi SSE 19.6 mph 26.5 mph N/A   Overcast
8:35 AM 50.0 °F 50.0 °F 100% 30.07 in 10.0 mi SSE 20.7 mph 26.5 mph N/A   Overcast
8:55 AM 51.8 °F 51.8 °F 100% 30.05 in 10.0 mi SE 19.6 mph 25.3 mph N/A   Overcast
9:15 AM 51.8 °F 51.8 °F 100% 30.05 in 10.0 mi SE 19.6 mph 25.3 mph N/A   Overcast
9:35 AM 51.8 °F 51.8 °F 100% 30.05 in 10.0 mi SE 16.1 mph 21.9 mph N/A   Overcast
9:55 AM 51.8 °F 51.8 °F 100% 30.05 in 10.0 mi SE 16.1 mph - N/A   Overcast
10:15 AM 51.8 °F 51.8 °F 100% 30.05 in 10.0 mi SE 16.1 mph - N/A   Overcast
10:35 AM 51.8 °F 51.8 °F 100% 30.05 in 10.0 mi SE 18.4 mph - N/A   Overcast
10:55 AM 53.6 °F 53.6 °F 100% 30.04 in 10.0 mi SE 24.2 mph - N/A   Overcast
11:15 AM 53.6 °F 53.6 °F 100% 30.04 in 10.0 mi SE 24.2 mph 29.9 mph N/A   Overcast
11:35 AM 53.6 °F 53.6 °F 100% 30.04 in 10.0 mi SE 21.9 mph 27.6 mph N/A   Overcast
11:55 AM 53.6 °F 53.6 °F 100% 30.04 in 10.0 mi SE 18.4 mph 29.9 mph N/A   Overcast
12:15 PM 55.4 °F 55.4 °F 100% 30.05 in 10.0 mi SE 17.3 mph 26.5 mph N/A   Overcast
12:35 PM 53.6 °F 53.6 °F 100% 30.05 in 10.0 mi SE 19.6 mph 26.5 mph N/A   Overcast
12:55 PM 53.6 °F 53.6 °F 100% 30.04 in 10.0 mi SE 23.0 mph 29.9 mph N/A   Overcast
1:15 PM 53.6 °F 53.6 °F 100% 30.05 in 10.0 mi SE 21.9 mph 27.6 mph N/A   Overcast
1:35 PM 53.6 °F 53.6 °F 100% 30.04 in 10.0 mi SE 21.9 mph 27.6 mph N/A   Overcast
1:55 PM 53.6 °F 53.6 °F 100% 30.05 in 1.2 mi SSE 15.0 mph - 0.01 in Rain Light Rain
2:15 PM 51.8 °F 51.8 °F 100% 30.06 in 2.5 mi SSE 13.8 mph - N/A Rain Light Rain
2:35 PM 53.6 °F 53.6 °F 100% 30.06 in 9.0 mi SSE 16.1 mph 19.6 mph N/A   Scattered Clouds
2:55 PM 53.6 °F 53.6 °F 100% 30.06 in 8.0 mi SSE 16.1 mph - N/A   Overcast
3:15 PM 53.6 °F 53.6 °F 100% 30.06 in 9.0 mi SSE 13.8 mph - N/A   Overcast
3:35 PM 53.6 °F 53.6 °F 100% 30.06 in 10.0 mi SSE 16.1 mph - N/A   Overcast
3:55 PM 53.6 °F 53.6 °F 100% 30.05 in 9.0 mi SSE 12.7 mph - N/A   Overcast
4:15 PM 55.4 °F 55.4 °F 100% 30.05 in 10.0 mi SSE 12.7 mph - N/A   Overcast
4:35 PM 55.4 °F 55.4 °F 100% 30.04 in 10.0 mi SSE 15.0 mph - N/A   Overcast
4:55 PM 57.2 °F 57.2 °F 100% 30.04 in 10.0 mi SE 15.0 mph - N/A   Overcast
5:15 PM 57.2 °F 57.2 °F 100% 30.03 in 10.0 mi SE 13.8 mph - N/A   Overcast
5:35 PM 57.2 °F 57.2 °F 100% 30.02 in 10.0 mi SE 12.7 mph - N/A   Overcast
5:55 PM 59.0 °F 57.2 °F 94% 30.02 in 10.0 mi SE 13.8 mph - N/A   Overcast
6:15 PM 59.0 °F 57.2 °F 94% 30.01 in 10.0 mi SE 13.8 mph - N/A   Overcast
6:35 PM 60.8 °F 59.0 °F 94% 30.01 in 10.0 mi SE 15.0 mph - N/A   Overcast
6:55 PM 59.0 °F 59.0 °F 100% 30.00 in 10.0 mi SE 15.0 mph - N/A   Overcast
7:15 PM 59.0 °F 57.2 °F 94% 30.00 in 10.0 mi SE 17.3 mph - N/A   Overcast
7:35 PM 59.0 °F 57.2 °F 94% 30.00 in 10.0 mi SE 15.0 mph - N/A   Overcast
7:55 PM 59.0 °F 59.0 °F 100% 30.00 in 10.0 mi SE 13.8 mph - N/A   Overcast
8:15 PM 59.0 °F 59.0 °F 100% 30.00 in 10.0 mi SSE 12.7 mph 18.4 mph N/A   Overcast
8:35 PM 57.2 °F 57.2 °F 100% 30.00 in 10.0 mi SSE 13.8 mph - N/A   Overcast
8:55 PM 57.2 °F 57.2 °F 100% 30.00 in 10.0 mi SE 12.7 mph - N/A   Overcast
9:15 PM 57.2 °F 57.2 °F 100% 30.00 in 10.0 mi SE 12.7 mph - N/A   Overcast
9:35 PM 57.2 °F 57.2 °F 100% 30.00 in 10.0 mi SE 12.7 mph - N/A   Overcast
9:55 PM 55.4 °F 55.4 °F 100% 30.00 in 10.0 mi SE 10.4 mph - N/A   Overcast
10:15 PM 55.4 °F 55.4 °F 100% 30.00 in 10.0 mi SE 11.5 mph - N/A   Overcast
10:35 PM 55.4 °F 55.4 °F 100% 30.00 in 10.0 mi SE 13.8 mph - N/A   Overcast
10:55 PM 55.4 °F 55.4 °F 100% 30.00 in 10.0 mi SE 15.0 mph - N/A   Overcast
11:15 PM 55.4 °F 55.4 °F 100% 30.00 in 10.0 mi SE 13.8 mph - N/A   Overcast
11:35 PM 55.4 °F 55.4 °F 100% 30.00 in 10.0 mi SE 12.7 mph 17.3 mph N/A   Overcast
11:55 PM 53.6 °F 53.6 °F 100% 29.99 in 10.0 mi SE 15.0 mph - N/A   Overcast